Meath Environmental Platform

Observations for Trim Market St

Time AQI Temp °C Hum % Pres Pa CO μg/m³ H₂S μg/m³ NO μg/m³ NO₂ μg/m³ O₃ μg/m³ SO₂ μg/m³ PM1 μg/m³ PM2.5 μg/m³ PM10 μg/m³
Tuesday 25 August 2026
20:05 3 17.7 74 26,954 0.36 0.42 1.02 28.44 54.27 0 6.41 7.67 12.96
20:02 3 17.8 74 31,483 0.25 0 1.1 24.77 57.52 0 7.13 8.18 12.38
19:59 3 17.9 73 34,069 0.17 0 1.11 28.17 54.96 0 6.41 10.62 14.84
19:57 3 17.9 73 36,263 0.17 0 1.05 27.07 54.29 0 4.99 6.78 9.97
19:55 3 18 72 38,187 0.11 0 0.87 20.84 58.62 0 4.99 6.8 9.98
19:49 3 18.1 72 43,847 0.13 0 0.89 26.93 58.54 0 8.55 11.2 16.17
19:45 3 18.2 71 46,607 0.12 0 1.31 29.75 56.74 0 7.13 7.85 11.25
19:44 3 18.2 71 47,425 0.12 0 1.3 25.05 59.04 0 4.99 8.83 12.5
19:43 3 18.3 71 48,302 0.12 0 1.33 26.06 57.18 0 5.7 8.35 13.75
19:42 3 18.3 71 49,147 0.12 0 1.26 30.06 56.5 0 7.13 8.85 12.52
19:41 3 18.3 70 49,943 0.14 0 1.2 31.88 53.74 0 6.41 7.88 11.27
19:40 3 18.4 70 50,527 0.15 0 1.12 27.44 57.26 0 7.84 8.38 11.91
19:39 3 18.4 70 51,050 0.12 0 1.23 23.72 59.27 0 9.26 9.85 13.79
19:38 3 18.4 70 51,515 0.12 0 1.22 29.27 57.23 0 7.84 9.37 15.67
19:37 3 18.4 70 51,979 0.12 0 1.22 21.56 59.73 0 6.41 9.38 14.43
19:36 3 18.5 70 52,363 0.12 0 1.32 26.3 58.6 0 7.13 9.39 13.81
19:35 3 18.5 70 52,732 0.13 0 1.32 25.94 59.74 0 7.84 10.85 15.07
19:34 3 18.5 70 53,125 0.13 0 1.23 23.67 62.16 0 9.98 11.84 16.35
19:33 3 18.5 70 53,348 0.12 0 1.23 22.51 61.55 0 8.55 10.87 15.72
19:32 3 18.6 69 53,574 0.11 0 1.24 18.76 66.57 0 7.13 7.95 11.31